Tracking 17154 objects as of 2-August-2015
HD Live streaming from Space Station

GLOBALSTAR M006

Track GLOBALSTAR M006 now!
10-day predictions
GLOBALSTAR M006 is classified as:


NORAD ID: 25307
Int'l Code: 1998-023B
Perigee: 1,419.8 km
Apogee: 1,421.7 km
Inclination: 52.0 °
Period: 114.1 minutes
Semi major axis: 7791 km
RCS: 2.7065 m2 (large)
Launch date: April 24, 1998
Source: Globalstar (GLOB)
Your satellite tracking list
Your tracking list is empty





NASA's NSSDC Master Catalog

Two Line Element Set (TLE):
1 25307U 98023B   15213.52407959 -.00000106  00000-0 -14570-4 0  9992
2 25307 051.9994 321.1921 0001195 101.7166 338.3172 12.62262866796643

Source of the keplerian elements: AFSPC

N2YO: 265